Torna al catalogo

STARLINK-2571

AttivoComunicazioniVLEO
NORAD 48401·PAYLOAD·🇺🇸 United States

Lanciato May 4, 2021 da Cape Canaveral Space Force Station

Loading…

Prossimi Passaggi (prossime 24 ore)

TLE

AggiornatoSource: CelesTrak SupGP

Epoca: Sep 14, 2026, 21:10 UTC

1 48401C 21038BA  26257.88243056 -.00025588  00000+0 -82287-3 0  2575
2 48401  53.1599 172.4319 0001379  96.0658 276.1453 15.31714153    12

Traccia STARLINK-2571 in tempo reale con AllMySat

Download on the App Store